Time,TemperatureF,DewpointF,PressureIn,WindDirection,WindDirectionDegrees,WindSpeedMPH,WindSpeedGustMPH,Humidity,HourlyPrecipIn,Conditions,Clouds,dailyrainin,SoftwareType,DateUTC
2013-07-01 00:04:00,61.2,52.5,30.04,NNE,17,2.0,4.0,73,0.00,,,0.00,meteohub,2013-07-01 05:04:00,
2013-07-01 00:09:00,61.0,52.7,30.04,NNE,17,3.0,5.0,74,0.00,,,0.00,meteohub,2013-07-01 05:09:00,
2013-07-01 00:14:00,60.4,52.2,30.04,NNE,17,2.0,5.0,74,0.00,,,0.00,meteohub,2013-07-01 05:14:00,
2013-07-01 00:20:00,60.1,52.5,30.04,NNE,17,0.0,4.0,76,0.00,,,0.00,meteohub,2013-07-01 05:20:00,
2013-07-01 00:25:00,59.5,52.3,30.04,NNE,17,0.0,4.0,77,0.00,,,0.00,meteohub,2013-07-01 05:25:00,
2013-07-01 00:30:00,59.4,52.5,30.05,NNE,17,0.0,3.0,78,0.00,,,0.00,meteohub,2013-07-01 05:30:00,
2013-07-01 00:35:00,59.2,52.3,30.05,NNE,17,0.0,1.0,78,0.00,,,0.00,meteohub,2013-07-01 05:35:00,
2013-07-01 00:40:00,58.6,52.2,30.05,NNE,17,0.0,0.0,79,0.00,,,0.00,meteohub,2013-07-01 05:40:00,
2013-07-01 00:46:00,58.5,52.3,30.05,NNE,17,0.0,0.0,80,0.00,,,0.00,meteohub,2013-07-01 05:46:00,
2013-07-01 00:51:00,58.3,52.5,30.05,NNE,17,0.0,1.0,81,0.00,,,0.00,meteohub,2013-07-01 05:51:00,
2013-07-01 00:56:00,57.9,52.2,30.05,NNE,17,0.0,1.0,81,0.00,,,0.00,meteohub,2013-07-01 05:56:00,
2013-07-01 01:01:00,57.9,52.5,30.05,NNE,17,0.0,0.0,82,0.00,,,0.00,meteohub,2013-07-01 06:01:00,
2013-07-01 01:06:00,57.9,52.5,30.05,NNE,17,0.0,0.0,82,0.00,,,0.00,meteohub,2013-07-01 06:06:00,
2013-07-01 01:12:00,57.9,52.5,30.05,NNE,17,0.0,0.0,82,0.00,,,0.00,meteohub,2013-07-01 06:12:00,
2013-07-01 01:17:00,57.9,52.5,30.05,NNE,17,1.0,0.0,82,0.00,,,0.00,meteohub,2013-07-01 06:17:00,
2013-07-01 01:22:00,57.9,52.5,30.05,NNE,17,0.0,2.0,82,0.00,,,0.00,meteohub,2013-07-01 06:22:00,
2013-07-01 01:27:00,57.9,52.5,30.05,NNE,17,0.0,3.0,82,0.00,,,0.00,meteohub,2013-07-01 06:27:00,
2013-07-01 01:32:00,57.7,52.3,30.05,NNE,17,0.0,3.0,82,0.00,,,0.00,meteohub,2013-07-01 06:32:00,
2013-07-01 01:37:00,57.6,52.5,30.05,NNE,17,0.0,3.0,83,0.00,,,0.00,meteohub,2013-07-01 06:37:00,
2013-07-01 01:38:00,57.6,52.5,30.05,NNE,17,0.0,3.0,83,0.00,,,0.00,meteohub,2013-07-01 06:38:00,
2013-07-01 01:43:00,57.4,52.0,30.05,NNE,17,2.0,2.0,82,0.00,,,0.00,meteohub,2013-07-01 06:43:00,
2013-07-01 01:48:00,57.6,51.8,30.05,NNE,17,2.0,3.0,81,0.00,,,0.00,meteohub,2013-07-01 06:48:00,
2013-07-01 01:54:00,57.4,51.6,30.05,NNE,17,0.0,3.0,81,0.00,,,0.00,meteohub,2013-07-01 06:54:00,
2013-07-01 01:59:00,57.4,51.6,30.05,NNE,17,1.0,3.0,81,0.00,,,0.00,meteohub,2013-07-01 06:59:00,
2013-07-01 02:04:00,57.2,51.4,30.05,NNE,17,1.0,3.0,81,0.00,,,0.00,meteohub,2013-07-01 07:04:00,
2013-07-01 02:09:00,57.2,51.4,30.05,NNE,17,0.0,3.0,81,0.00,,,0.00,meteohub,2013-07-01 07:09:00,
2013-07-01 02:14:00,57.0,51.6,30.05,NNE,17,0.0,3.0,82,0.00,,,0.00,meteohub,2013-07-01 07:14:00,
2013-07-01 02:20:00,57.0,51.6,30.05,NNE,17,0.0,3.0,82,0.00,,,0.00,meteohub,2013-07-01 07:20:00,
2013-07-01 02:25:00,56.8,51.4,30.05,NNE,17,0.0,1.0,82,0.00,,,0.00,meteohub,2013-07-01 07:25:00,
2013-07-01 02:30:00,56.7,51.3,30.05,NNE,17,0.0,1.0,82,0.00,,,0.00,meteohub,2013-07-01 07:30:00,
2013-07-01 02:35:00,56.7,51.6,30.05,NNE,17,0.0,1.0,83,0.00,,,0.00,meteohub,2013-07-01 07:35:00,
2013-07-01 02:40:00,56.5,51.4,30.05,NNE,17,1.0,2.0,83,0.00,,,0.00,meteohub,2013-07-01 07:40:00,
2013-07-01 02:45:00,56.5,51.4,30.05,NNE,17,1.0,2.0,83,0.00,,,0.00,meteohub,2013-07-01 07:45:00,
2013-07-01 02:51:00,56.7,51.6,30.05,NNE,17,0.0,2.0,83,0.00,,,0.00,meteohub,2013-07-01 07:51:00,
2013-07-01 02:56:00,56.7,51.6,30.05,NNE,17,0.0,2.0,83,0.00,,,0.00,meteohub,2013-07-01 07:56:00,
2013-07-01 03:01:00,56.5,51.4,30.05,NNE,17,0.0,1.0,83,0.00,,,0.00,meteohub,2013-07-01 08:01:00,
2013-07-01 03:06:00,56.1,51.4,30.06,NNE,17,2.0,2.0,84,0.00,,,0.00,meteohub,2013-07-01 08:06:00,
2013-07-01 03:11:00,55.9,51.3,30.05,NNE,17,1.0,2.0,84,0.00,,,0.00,meteohub,2013-07-01 08:11:00,
2013-07-01 03:17:00,55.8,51.1,30.06,NNE,17,1.0,3.0,84,0.00,,,0.00,meteohub,2013-07-01 08:17:00,
2013-07-01 03:22:00,55.8,51.3,30.06,NNE,17,2.0,3.0,85,0.00,,,0.00,meteohub,2013-07-01 08:22:00,
2013-07-01 03:27:00,55.8,51.3,30.06,NNE,17,2.0,3.0,85,0.00,,,0.00,meteohub,2013-07-01 08:27:00,
2013-07-01 03:32:00,55.8,51.3,30.06,NNE,17,2.0,4.0,85,0.00,,,0.00,meteohub,2013-07-01 08:32:00,
2013-07-01 03:37:00,55.9,51.3,30.06,NNE,17,3.0,4.0,84,0.00,,,0.00,meteohub,2013-07-01 08:37:00,
2013-07-01 03:42:00,56.1,51.1,30.06,NNE,17,1.0,3.0,83,0.00,,,0.00,meteohub,2013-07-01 08:42:00,
2013-07-01 03:47:00,56.1,51.1,30.06,NNE,17,2.0,3.0,83,0.00,,,0.00,meteohub,2013-07-01 08:47:00,
2013-07-01 03:52:00,56.5,51.1,30.06,NNE,17,3.0,3.0,82,0.00,,,0.00,meteohub,2013-07-01 08:52:00,
2013-07-01 03:57:00,56.5,51.1,30.07,NNE,17,0.0,3.0,82,0.00,,,0.00,meteohub,2013-07-01 08:57:00,
2013-07-01 04:02:00,56.1,50.7,30.07,NNE,17,0.0,3.0,82,0.00,,,0.00,meteohub,2013-07-01 09:02:00,
2013-07-01 04:07:00,55.9,50.5,30.07,NNE,17,1.0,3.0,82,0.00,,,0.00,meteohub,2013-07-01 09:07:00,
2013-07-01 04:12:00,55.9,50.5,30.07,NNE,17,0.0,2.0,82,0.00,,,0.00,meteohub,2013-07-01 09:12:00,
2013-07-01 04:17:00,55.8,50.7,30.07,NNE,17,0.0,2.0,83,0.00,,,0.00,meteohub,2013-07-01 09:17:00,
2013-07-01 04:22:00,55.6,50.9,30.07,NNE,17,0.0,2.0,84,0.00,,,0.00,meteohub,2013-07-01 09:22:00,
2013-07-01 04:27:00,55.2,50.5,30.07,NNE,17,0.0,1.0,84,0.00,,,0.00,meteohub,2013-07-01 09:27:00,
2013-07-01 04:32:00,55.0,50.5,30.07,NNE,17,0.0,1.0,85,0.00,,,0.00,meteohub,2013-07-01 09:32:00,
2013-07-01 04:37:00,55.0,50.5,30.08,NNE,17,0.0,3.0,85,0.00,,,0.00,meteohub,2013-07-01 09:37:00,
2013-07-01 04:42:00,55.2,50.5,30.08,NNE,17,1.0,3.0,84,0.00,,,0.00,meteohub,2013-07-01 09:42:00,
2013-07-01 04:47:00,55.4,50.7,30.08,NNE,17,0.0,3.0,84,0.00,,,0.00,meteohub,2013-07-01 09:47:00,
2013-07-01 04:52:00,55.6,50.5,30.08,NNE,17,2.0,3.0,83,0.00,,,0.00,meteohub,2013-07-01 09:52:00,
2013-07-01 04:57:00,55.9,50.5,30.09,NNE,17,2.0,3.0,82,0.00,,,0.00,meteohub,2013-07-01 09:57:00,
2013-07-01 05:02:00,56.1,50.4,30.08,NNE,17,3.0,4.0,81,0.00,,,0.00,meteohub,2013-07-01 10:02:00,
2013-07-01 05:07:00,56.5,50.7,30.09,NNE,17,3.0,4.0,81,0.00,,,0.00,meteohub,2013-07-01 10:07:00,
2013-07-01 05:12:00,56.7,50.5,30.09,NNE,17,4.0,4.0,80,0.00,,,0.00,meteohub,2013-07-01 10:12:00,
2013-07-01 05:17:00,56.8,50.7,30.09,NNE,17,3.0,4.0,80,0.00,,,0.00,meteohub,2013-07-01 10:17:00,
2013-07-01 05:22:00,56.8,50.7,30.09,NNE,17,2.0,4.0,80,0.00,,,0.00,meteohub,2013-07-01 10:22:00,
2013-07-01 05:27:00,56.7,50.5,30.09,NNE,17,4.0,4.0,80,0.00,,,0.00,meteohub,2013-07-01 10:27:00,
2013-07-01 05:32:00,56.3,50.2,30.09,NNE,17,2.0,5.0,80,0.00,,,0.00,meteohub,2013-07-01 10:32:00,
2013-07-01 05:37:00,56.1,50.4,30.09,NNE,17,2.0,5.0,81,0.00,,,0.00,meteohub,2013-07-01 10:37:00,
2013-07-01 05:42:00,56.1,50.4,30.09,NNE,17,2.0,5.0,81,0.00,,,0.00,meteohub,2013-07-01 10:42:00,
2013-07-01 05:47:00,56.5,50.7,30.09,NNE,17,2.0,5.0,81,0.00,,,0.00,meteohub,2013-07-01 10:47:00,
2013-07-01 05:52:00,56.7,51.3,30.09,NNE,17,3.0,5.0,82,0.00,,,0.00,meteohub,2013-07-01 10:52:00,
2013-07-01 05:57:00,56.8,51.4,30.09,NNE,17,2.0,4.0,82,0.00,,,0.00,meteohub,2013-07-01 10:57:00,
2013-07-01 06:02:00,57.0,51.6,30.09,NNE,17,3.0,4.0,82,0.00,,,0.00,meteohub,2013-07-01 11:02:00,
2013-07-01 06:07:00,57.4,51.6,30.09,NNE,17,3.0,4.0,81,0.00,,,0.00,meteohub,2013-07-01 11:07:00,
2013-07-01 06:12:00,57.6,51.8,30.09,NNE,17,2.0,4.0,81,0.00,,,0.00,meteohub,2013-07-01 11:12:00,
2013-07-01 06:17:00,57.7,52.3,30.09,NNE,17,2.0,4.0,82,0.00,,,0.00,meteohub,2013-07-01 11:17:00,
2013-07-01 06:22:00,58.1,52.7,30.09,NNE,17,2.0,4.0,82,0.00,,,0.00,meteohub,2013-07-01 11:22:00,
2013-07-01 06:27:00,58.5,53.1,30.10,NNE,17,1.0,4.0,82,0.00,,,0.00,meteohub,2013-07-01 11:27:00,
2013-07-01 06:32:00,58.5,53.1,30.10,NNE,17,0.0,4.0,82,0.00,,,0.00,meteohub,2013-07-01 11:32:00,
2013-07-01 06:37:00,58.5,53.1,30.10,NNE,17,2.0,3.0,82,0.00,,,0.00,meteohub,2013-07-01 11:37:00,
2013-07-01 06:42:00,58.5,53.2,30.10,NNE,17,2.0,3.0,83,0.00,,,0.00,meteohub,2013-07-01 11:42:00,
2013-07-01 06:47:00,58.8,53.6,30.10,NNE,17,2.0,3.0,83,0.00,,,0.00,meteohub,2013-07-01 11:47:00,
2013-07-01 06:52:00,59.2,54.3,30.10,NNE,17,1.0,3.0,84,0.00,,,0.00,meteohub,2013-07-01 11:52:00,
2013-07-01 06:57:00,59.5,54.3,30.10,NNE,17,0.0,3.0,83,0.00,,,0.00,meteohub,2013-07-01 11:57:00,
2013-07-01 07:02:00,60.3,54.7,30.10,NNE,17,2.0,3.0,82,0.00,,,0.00,meteohub,2013-07-01 12:02:00,
2013-07-01 07:07:00,60.6,55.0,30.10,NNE,17,2.0,3.0,82,0.00,,,0.00,meteohub,2013-07-01 12:07:00,
2013-07-01 07:13:00,61.0,55.0,30.10,NNE,17,3.0,3.0,81,0.00,,,0.00,meteohub,2013-07-01 12:13:00,
2013-07-01 07:18:00,61.2,55.2,30.10,NNE,17,4.0,4.0,81,0.00,,,0.00,meteohub,2013-07-01 12:18:00,
2013-07-01 07:23:00,61.7,55.8,30.11,NNE,17,3.0,5.0,81,0.00,,,0.00,meteohub,2013-07-01 12:23:00,
2013-07-01 07:28:00,62.2,56.3,30.10,NNE,17,3.0,5.0,81,0.00,,,0.00,meteohub,2013-07-01 12:28:00,
2013-07-01 07:34:00,62.8,56.8,30.11,NNE,17,3.0,5.0,81,0.00,,,0.00,meteohub,2013-07-01 12:34:00,
2013-07-01 07:39:00,63.1,56.1,30.11,North,5,5.0,5.0,78,0.00,,,0.00,meteohub,2013-07-01 12:39:00,
2013-07-01 07:44:00,63.7,57.0,30.11,North,5,4.0,7.0,79,0.00,,,0.00,meteohub,2013-07-01 12:44:00,
2013-07-01 07:49:00,64.0,57.0,30.11,North,5,3.0,7.0,78,0.00,,,0.00,meteohub,2013-07-01 12:49:00,
2013-07-01 07:54:00,64.2,55.8,30.11,North,11,6.0,7.0,74,0.00,,,0.00,meteohub,2013-07-01 12:54:00,
2013-07-01 07:59:00,64.6,56.1,30.11,North,9,6.0,11.0,74,0.00,,,0.00,meteohub,2013-07-01 12:59:00,
2013-07-01 08:05:00,64.9,56.5,30.11,NNE,13,5.0,11.0,74,0.00,,,0.00,meteohub,2013-07-01 13:05:00,
2013-07-01 08:10:00,65.7,56.3,30.11,NNE,18,5.0,11.0,72,0.00,,,0.00,meteohub,2013-07-01 13:10:00,
2013-07-01 08:15:00,66.0,56.3,30.12,NNE,17,5.0,9.0,71,0.00,,,0.00,meteohub,2013-07-01 13:15:00,
2013-07-01 08:20:00,66.0,55.2,30.12,NE,40,6.0,9.0,68,0.00,,,0.00,meteohub,2013-07-01 13:20:00,
2013-07-01 08:25:00,66.4,55.6,30.12,NNE,32,6.0,10.0,68,0.00,,,0.00,meteohub,2013-07-01 13:25:00,
2013-07-01 08:31:00,66.6,54.9,30.12,NNE,12,6.0,10.0,66,0.00,,,0.00,meteohub,2013-07-01 13:31:00,
2013-07-01 08:36:00,66.7,56.3,30.12,North,355,5.0,10.0,69,0.00,,,0.00,meteohub,2013-07-01 13:36:00,
2013-07-01 08:41:00,66.7,55.0,30.12,North,5,7.0,11.0,66,0.00,,,0.00,meteohub,2013-07-01 13:41:00,
2013-07-01 08:46:00,67.1,55.8,30.12,North,5,9.0,11.0,67,0.00,,,0.00,meteohub,2013-07-01 13:46:00,
2013-07-01 08:51:00,67.5,54.5,30.12,North,9,9.0,13.0,63,0.00,,,0.00,meteohub,2013-07-01 13:51:00,
2013-07-01 08:56:00,67.5,55.2,30.12,NNE,23,9.0,13.0,65,0.00,,,0.00,meteohub,2013-07-01 13:56:00,
2013-07-01 09:02:00,67.6,54.1,30.12,NNE,16,7.0,13.0,62,0.00,,,0.00,meteohub,2013-07-01 14:02:00,
2013-07-01 09:07:00,67.8,52.9,30.12,NNE,22,10.0,13.0,59,0.00,,,0.00,meteohub,2013-07-01 14:07:00,
2013-07-01 09:12:00,68.2,55.6,30.12,North,5,7.0,15.0,64,0.00,,,0.00,meteohub,2013-07-01 14:12:00,
2013-07-01 09:17:00,68.5,55.9,30.12,North,355,9.0,15.0,64,0.00,,,0.00,meteohub,2013-07-01 14:17:00,
2013-07-01 09:22:00,68.5,55.9,30.12,NNE,24,6.0,15.0,64,0.00,,,0.00,meteohub,2013-07-01 14:22:00,
2013-07-01 09:27:00,68.5,55.4,30.12,NNE,26,6.0,13.0,63,0.00,,,0.00,meteohub,2013-07-01 14:27:00,
2013-07-01 09:32:00,68.7,54.7,30.12,NNE,28,6.0,14.0,61,0.00,,,0.00,meteohub,2013-07-01 14:32:00,
2013-07-01 09:37:00,68.9,54.5,30.12,NE,42,7.0,14.0,60,0.00,,,0.00,meteohub,2013-07-01 14:37:00,
2013-07-01 09:42:00,69.3,55.2,30.12,NNE,17,7.0,12.0,61,0.00,,,0.00,meteohub,2013-07-01 14:42:00,
2013-07-01 09:47:00,69.3,55.8,30.12,North,11,9.0,12.0,62,0.00,,,0.00,meteohub,2013-07-01 14:47:00,
2013-07-01 09:52:00,69.3,54.9,30.12,North,5,9.0,13.0,60,0.00,,,0.00,meteohub,2013-07-01 14:52:00,
2013-07-01 09:57:00,69.4,55.9,30.12,North,355,6.0,13.0,62,0.00,,,0.00,meteohub,2013-07-01 14:57:00,
2013-07-01 10:02:00,69.4,55.9,30.12,NNE,25,11.0,13.0,62,0.00,,,0.00,meteohub,2013-07-01 15:02:00,
2013-07-01 10:07:00,69.6,55.9,30.12,NNE,30,5.0,12.0,62,0.00,,,0.00,meteohub,2013-07-01 15:07:00,
2013-07-01 10:12:00,70.2,56.1,30.12,NNE,21,6.0,12.0,61,0.00,,,0.00,meteohub,2013-07-01 15:12:00,
2013-07-01 10:17:00,70.2,56.5,30.12,North,9,8.0,14.0,62,0.00,,,0.00,meteohub,2013-07-01 15:17:00,
2013-07-01 10:22:00,70.2,56.5,30.12,NNE,32,6.0,14.0,62,0.00,,,0.00,meteohub,2013-07-01 15:22:00,
2013-07-01 10:27:00,70.3,56.3,30.12,North,0,9.0,14.0,61,0.00,,,0.00,meteohub,2013-07-01 15:27:00,
2013-07-01 10:32:00,70.5,55.9,30.12,NNE,16,9.0,12.0,60,0.00,,,0.00,meteohub,2013-07-01 15:32:00,
2013-07-01 10:37:00,70.7,57.9,30.12,NNE,19,5.0,12.0,64,0.00,,,0.00,meteohub,2013-07-01 15:37:00,
2013-07-01 10:42:00,70.9,56.8,30.12,North,5,4.0,12.0,61,0.00,,,0.00,meteohub,2013-07-01 15:42:00,
2013-07-01 10:47:00,71.4,58.1,30.12,North,11,6.0,12.0,63,0.00,,,0.00,meteohub,2013-07-01 15:47:00,
2013-07-01 10:52:00,72.0,58.3,30.12,NNE,29,9.0,12.0,62,0.00,,,0.00,meteohub,2013-07-01 15:52:00,
2013-07-01 10:57:00,72.1,58.8,30.12,NE,46,9.0,12.0,63,0.00,,,0.00,meteohub,2013-07-01 15:57:00,
2013-07-01 11:02:00,72.0,56.8,30.12,NNE,19,6.0,13.0,59,0.00,,,0.00,meteohub,2013-07-01 16:02:00,
2013-07-01 11:07:00,72.3,57.7,30.12,NE,48,8.0,13.0,60,0.00,,,0.00,meteohub,2013-07-01 16:07:00,
2013-07-01 11:12:00,72.3,57.7,30.12,North,10,10.0,13.0,60,0.00,,,0.00,meteohub,2013-07-01 16:12:00,
2013-07-01 11:17:00,72.7,58.8,30.12,NNE,29,6.0,13.0,62,0.00,,,0.00,meteohub,2013-07-01 16:17:00,
2013-07-01 11:22:00,72.7,57.9,30.12,NNE,12,9.0,13.0,60,0.00,,,0.00,meteohub,2013-07-01 16:22:00,
2013-07-01 11:27:00,73.0,57.4,30.12,NE,40,5.0,12.0,58,0.00,,,0.00,meteohub,2013-07-01 16:27:00,
2013-07-01 11:32:00,73.4,56.7,30.12,NNE,15,12.0,12.0,56,0.00,,,0.00,meteohub,2013-07-01 16:32:00,
2013-07-01 11:37:00,73.4,59.2,30.12,NNE,17,9.0,14.0,61,0.00,,,0.00,meteohub,2013-07-01 16:37:00,
2013-07-01 11:42:00,73.6,57.9,30.12,NNE,24,6.0,14.0,58,0.00,,,0.00,meteohub,2013-07-01 16:42:00,
2013-07-01 11:47:00,73.6,56.8,30.12,NNE,30,9.0,14.0,56,0.00,,,0.00,meteohub,2013-07-01 16:47:00,
2013-07-01 11:52:00,73.6,57.4,30.12,NE,44,7.0,12.0,57,0.00,,,0.00,meteohub,2013-07-01 16:52:00,
2013-07-01 11:57:00,73.6,57.4,30.12,NNE,28,10.0,14.0,57,0.00,,,0.00,meteohub,2013-07-01 16:57:00,
2013-07-01 12:02:00,73.8,58.5,30.11,North,5,10.0,14.0,59,0.00,,,0.00,meteohub,2013-07-01 17:02:00,
2013-07-01 12:07:00,74.3,59.0,30.11,NE,37,9.0,14.0,59,0.00,,,0.00,meteohub,2013-07-01 17:07:00,
2013-07-01 12:12:00,74.1,57.9,30.11,NNE,32,6.0,14.0,57,0.00,,,0.00,meteohub,2013-07-01 17:12:00,
2013-07-01 12:17:00,74.1,57.4,30.11,NNE,30,10.0,15.0,56,0.00,,,0.00,meteohub,2013-07-01 17:17:00,
2013-07-01 12:22:00,74.7,59.4,30.11,NNE,33,8.0,15.0,59,0.00,,,0.00,meteohub,2013-07-01 17:22:00,
2013-07-01 12:27:00,74.7,59.9,30.11,North,5,7.0,15.0,60,0.00,,,0.00,meteohub,2013-07-01 17:27:00,
2013-07-01 12:32:00,74.8,59.5,30.11,NE,46,6.0,13.0,59,0.00,,,0.00,meteohub,2013-07-01 17:32:00,
2013-07-01 12:37:00,75.0,60.3,30.11,NE,34,6.0,13.0,60,0.00,,,0.00,meteohub,2013-07-01 17:37:00,
2013-07-01 12:42:00,75.4,60.1,30.11,NNE,18,10.0,13.0,59,0.00,,,0.00,meteohub,2013-07-01 17:42:00,
2013-07-01 12:47:00,75.2,60.4,30.11,NE,36,10.0,12.0,60,0.00,,,0.00,meteohub,2013-07-01 17:47:00,
2013-07-01 12:52:00,75.4,60.1,30.10,North,5,8.0,12.0,59,0.00,,,0.00,meteohub,2013-07-01 17:52:00,
2013-07-01 12:57:00,75.4,58.6,30.11,NE,41,5.0,14.0,56,0.00,,,0.00,meteohub,2013-07-01 17:57:00,
2013-07-01 13:02:00,75.7,59.9,30.11,NNE,13,7.0,14.0,58,0.00,,,0.00,meteohub,2013-07-01 18:02:00,
2013-07-01 13:07:00,75.9,59.2,30.11,NE,36,9.0,14.0,56,0.00,,,0.00,meteohub,2013-07-01 18:07:00,
2013-07-01 13:12:00,76.1,60.3,30.11,NNE,30,12.0,12.0,58,0.00,,,0.00,meteohub,2013-07-01 18:12:00,
2013-07-01 13:17:00,75.9,58.6,30.10,NNE,16,10.0,15.0,55,0.00,,,0.00,meteohub,2013-07-01 18:17:00,
2013-07-01 13:22:00,75.7,57.9,30.10,NNE,26,6.0,16.0,54,0.00,,,0.00,meteohub,2013-07-01 18:22:00,
2013-07-01 13:27:00,75.7,59.0,30.10,NNE,24,10.0,16.0,56,0.00,,,0.00,meteohub,2013-07-01 18:27:00,
2013-07-01 13:32:00,75.7,59.0,30.10,NE,38,9.0,16.0,56,0.00,,,0.00,meteohub,2013-07-01 18:32:00,
2013-07-01 13:37:00,75.7,56.8,30.10,NNE,31,8.0,15.0,52,0.00,,,0.00,meteohub,2013-07-01 18:37:00,
2013-07-01 13:43:00,75.9,57.0,30.10,NE,40,13.0,15.0,52,0.00,,,0.00,meteohub,2013-07-01 18:43:00,
2013-07-01 13:48:00,76.5,57.0,30.10,NE,42,7.0,16.0,51,0.00,,,0.00,meteohub,2013-07-01 18:48:00,
2013-07-01 13:53:00,76.6,57.7,30.10,NE,50,10.0,16.0,52,0.00,,,0.00,meteohub,2013-07-01 18:53:00,
2013-07-01 13:58:00,76.5,55.9,30.10,NE,42,8.0,16.0,49,0.00,,,0.00,meteohub,2013-07-01 18:58:00,
2013-07-01 14:03:00,76.5,57.0,30.10,North,5,8.0,14.0,51,0.00,,,0.00,meteohub,2013-07-01 19:03:00,
2013-07-01 14:09:00,76.8,57.4,30.10,North,0,7.0,15.0,51,0.00,,,0.00,meteohub,2013-07-01 19:09:00,
2013-07-01 14:14:00,77.2,57.0,30.10,NNE,17,5.0,15.0,50,0.00,,,0.00,meteohub,2013-07-01 19:14:00,
2013-07-01 14:19:00,77.2,55.9,30.10,NE,53,13.0,15.0,48,0.00,,,0.00,meteohub,2013-07-01 19:19:00,
2013-07-01 14:24:00,77.4,56.1,30.10,NE,36,9.0,15.0,48,0.00,,,0.00,meteohub,2013-07-01 19:24:00,
2013-07-01 14:29:00,77.5,55.0,30.10,NNE,24,6.0,16.0,46,0.00,,,0.00,meteohub,2013-07-01 19:29:00,
2013-07-01 14:35:00,77.5,56.3,30.10,NE,47,13.0,16.0,48,0.00,,,0.00,meteohub,2013-07-01 19:35:00,
2013-07-01 14:40:00,77.5,56.3,30.10,North,5,10.0,14.0,48,0.00,,,0.00,meteohub,2013-07-01 19:40:00,
2013-07-01 14:45:00,78.1,55.6,30.10,NNE,17,10.0,14.0,46,0.00,,,0.00,meteohub,2013-07-01 19:45:00,
2013-07-01 14:50:00,77.7,54.1,30.09,NE,43,8.0,15.0,44,0.00,,,0.00,meteohub,2013-07-01 19:50:00,
2013-07-01 14:55:00,77.7,57.0,30.09,NE,48,8.0,15.0,49,0.00,,,0.00,meteohub,2013-07-01 19:55:00,
2013-07-01 15:01:00,77.7,54.1,30.09,NNE,27,11.0,15.0,44,0.00,,,0.00,meteohub,2013-07-01 20:01:00,
2013-07-01 15:06:00,77.4,53.1,30.09,NE,36,9.0,14.0,43,0.00,,,0.00,meteohub,2013-07-01 20:06:00,
2013-07-01 15:11:00,77.4,55.0,30.09,ENE,67,7.0,14.0,46,0.00,,,0.00,meteohub,2013-07-01 20:11:00,
2013-07-01 15:16:00,77.4,54.3,30.09,ENE,68,10.0,14.0,45,0.00,,,0.00,meteohub,2013-07-01 20:16:00,
2013-07-01 15:21:00,78.1,53.8,30.09,ENE,72,12.0,16.0,43,0.00,,,0.00,meteohub,2013-07-01 20:21:00,
2013-07-01 15:27:00,78.4,53.4,30.09,NE,40,9.0,16.0,42,0.00,,,0.00,meteohub,2013-07-01 20:27:00,
2013-07-01 15:32:00,78.4,53.4,30.09,NE,46,13.0,16.0,42,0.00,,,0.00,meteohub,2013-07-01 20:32:00,
2013-07-01 15:37:00,78.4,54.1,30.09,ENE,58,10.0,15.0,43,0.00,,,0.00,meteohub,2013-07-01 20:37:00,
2013-07-01 15:42:00,78.4,54.7,30.09,NE,34,6.0,15.0,44,0.00,,,0.00,meteohub,2013-07-01 20:42:00,
2013-07-01 15:48:00,78.4,53.4,30.09,ENE,69,14.0,15.0,42,0.00,,,0.00,meteohub,2013-07-01 20:48:00,
2013-07-01 15:53:00,78.3,53.2,30.09,ENE,60,9.0,17.0,42,0.00,,,0.00,meteohub,2013-07-01 20:53:00,
2013-07-01 15:58:00,78.1,55.0,30.09,NE,53,8.0,17.0,45,0.00,,,0.00,meteohub,2013-07-01 20:58:00,
2013-07-01 16:03:00,78.6,56.1,30.09,NNE,32,11.0,17.0,46,0.00,,,0.00,meteohub,2013-07-01 21:03:00,
2013-07-01 16:08:00,78.6,54.3,30.09,NE,55,10.0,15.0,43,0.00,,,0.00,meteohub,2013-07-01 21:08:00,
2013-07-01 16:14:00,78.1,53.8,30.09,NE,41,5.0,15.0,43,0.00,,,0.00,meteohub,2013-07-01 21:14:00,
2013-07-01 16:19:00,78.1,55.0,30.09,ENE,65,11.0,15.0,45,0.00,,,0.00,meteohub,2013-07-01 21:19:00,
2013-07-01 16:24:00,78.1,54.3,30.09,ENE,61,8.0,16.0,44,0.00,,,0.00,meteohub,2013-07-01 21:24:00,
2013-07-01 16:29:00,77.5,54.0,30.09,ENE,61,9.0,16.0,44,0.00,,,0.00,meteohub,2013-07-01 21:29:00,
2013-07-01 16:34:00,77.2,54.1,30.09,NNE,28,9.0,16.0,45,0.00,,,0.00,meteohub,2013-07-01 21:34:00,
2013-07-01 16:39:00,77.7,54.7,30.09,ENE,67,11.0,15.0,45,0.00,,,0.00,meteohub,2013-07-01 21:39:00,
2013-07-01 16:45:00,77.4,55.0,30.09,NE,46,9.0,15.0,46,0.00,,,0.00,meteohub,2013-07-01 21:45:00,
2013-07-01 16:50:00,77.7,52.9,30.09,ENE,67,8.0,15.0,42,0.00,,,0.00,meteohub,2013-07-01 21:50:00,
2013-07-01 16:55:00,78.1,53.8,30.09,ENE,62,4.0,15.0,43,0.00,,,0.00,meteohub,2013-07-01 21:55:00,
2013-07-01 17:00:00,78.1,53.8,30.09,ENE,57,9.0,15.0,43,0.00,,,0.00,meteohub,2013-07-01 22:00:00,
2013-07-01 17:05:00,78.3,55.2,30.09,ENE,61,8.0,15.0,45,0.00,,,0.00,meteohub,2013-07-01 22:05:00,
2013-07-01 17:10:00,78.1,52.5,30.09,NE,35,9.0,15.0,41,0.00,,,0.00,meteohub,2013-07-01 22:10:00,
2013-07-01 17:16:00,78.1,55.0,30.09,NE,52,6.0,15.0,45,0.00,,,0.00,meteohub,2013-07-01 22:16:00,
2013-07-01 17:21:00,78.1,55.6,30.09,NE,56,6.0,15.0,46,0.00,,,0.00,meteohub,2013-07-01 22:21:00,
2013-07-01 17:26:00,78.1,53.8,30.09,ENE,66,5.0,13.0,43,0.00,,,0.00,meteohub,2013-07-01 22:26:00,
2013-07-01 17:31:00,78.3,55.2,30.09,ENE,59,9.0,11.0,45,0.00,,,0.00,meteohub,2013-07-01 22:31:00,
2013-07-01 17:36:00,78.1,55.0,30.09,NE,51,11.0,11.0,45,0.00,,,0.00,meteohub,2013-07-01 22:36:00,
2013-07-01 17:42:00,77.7,54.7,30.09,East,79,9.0,13.0,45,0.00,,,0.00,meteohub,2013-07-01 22:42:00,
2013-07-01 17:47:00,77.5,55.8,30.09,NE,55,8.0,13.0,47,0.00,,,0.00,meteohub,2013-07-01 22:47:00,
2013-07-01 17:52:00,77.4,54.3,30.09,NE,42,6.0,13.0,45,0.00,,,0.00,meteohub,2013-07-01 22:52:00,
2013-07-01 17:57:00,77.4,54.3,30.09,ENE,67,9.0,13.0,45,0.00,,,0.00,meteohub,2013-07-01 22:57:00,
2013-07-01 18:02:00,77.2,55.4,30.09,NE,47,6.0,13.0,47,0.00,,,0.00,meteohub,2013-07-01 23:02:00,
2013-07-01 18:07:00,76.6,54.9,30.09,ENE,61,10.0,13.0,47,0.00,,,0.00,meteohub,2013-07-01 23:07:00,
2013-07-01 18:12:00,76.1,55.6,30.09,NE,51,6.0,12.0,49,0.00,,,0.00,meteohub,2013-07-01 23:12:00,
2013-07-01 18:17:00,76.5,55.4,30.09,NE,55,6.0,11.0,48,0.00,,,0.00,meteohub,2013-07-01 23:17:00,
2013-07-01 18:22:00,76.5,55.9,30.09,NE,47,6.0,11.0,49,0.00,,,0.00,meteohub,2013-07-01 23:22:00,
2013-07-01 18:27:00,76.5,57.0,30.08,NE,56,3.0,10.0,51,0.00,,,0.00,meteohub,2013-07-01 23:27:00,
2013-07-01 18:32:00,76.5,55.4,30.09,ENE,63,7.0,12.0,48,0.00,,,0.00,meteohub,2013-07-01 23:32:00,
2013-07-01 18:37:00,76.3,56.3,30.08,ENE,67,4.0,13.0,50,0.00,,,0.00,meteohub,2013-07-01 23:37:00,
2013-07-01 18:42:00,76.1,56.1,30.08,ENE,61,8.0,13.0,50,0.00,,,0.00,meteohub,2013-07-01 23:42:00,
2013-07-01 18:47:00,75.9,55.4,30.08,ENE,58,3.0,13.0,49,0.00,,,0.00,meteohub,2013-07-01 23:47:00,
2013-07-01 18:52:00,75.9,55.9,30.08,ENE,57,7.0,9.0,50,0.00,,,0.00,meteohub,2013-07-01 23:52:00,
2013-07-01 18:57:00,75.6,56.1,30.08,NE,47,3.0,10.0,51,0.00,,,0.00,meteohub,2013-07-01 23:57:00,
2013-07-01 19:02:00,75.4,54.3,30.08,ENE,61,5.0,10.0,48,0.00,,,0.00,meteohub,2013-07-02 00:02:00,
2013-07-01 19:07:00,75.0,56.1,30.08,ENE,60,3.0,8.0,52,0.00,,,0.00,meteohub,2013-07-02 00:07:00,
2013-07-01 19:12:00,74.8,56.1,30.08,ENE,57,7.0,8.0,52,0.00,,,0.00,meteohub,2013-07-02 00:12:00,
2013-07-01 19:17:00,74.7,56.5,30.09,ENE,57,2.0,8.0,53,0.00,,,0.00,meteohub,2013-07-02 00:17:00,
2013-07-01 19:22:00,74.3,56.7,30.09,ENE,57,3.0,7.0,54,0.00,,,0.00,meteohub,2013-07-02 00:22:00,
2013-07-01 19:27:00,73.9,56.8,30.09,ENE,57,3.0,7.0,55,0.00,,,0.00,meteohub,2013-07-02 00:27:00,
2013-07-01 19:32:00,73.8,56.7,30.09,ENE,57,3.0,5.0,55,0.00,,,0.00,meteohub,2013-07-02 00:32:00,
2013-07-01 19:37:00,73.6,56.8,30.09,ENE,57,1.0,5.0,56,0.00,,,0.00,meteohub,2013-07-02 00:37:00,
2013-07-01 19:42:00,73.0,57.4,30.09,ENE,57,3.0,5.0,58,0.00,,,0.00,meteohub,2013-07-02 00:42:00,
2013-07-01 19:47:00,72.7,57.9,30.09,ENE,57,1.0,4.0,60,0.00,,,0.00,meteohub,2013-07-02 00:47:00,
2013-07-01 19:52:00,72.1,57.9,30.09,ENE,57,2.0,4.0,61,0.00,,,0.00,meteohub,2013-07-02 00:52:00,
2013-07-01 19:57:00,71.6,57.9,30.09,ENE,57,0.0,3.0,62,0.00,,,0.00,meteohub,2013-07-02 00:57:00,
2013-07-01 20:02:00,71.2,57.6,30.09,ENE,57,1.0,3.0,62,0.00,,,0.00,meteohub,2013-07-02 01:02:00,
2013-07-01 20:07:00,70.9,57.2,30.09,ENE,57,1.0,3.0,62,0.00,,,0.00,meteohub,2013-07-02 01:07:00,
2013-07-01 20:12:00,70.5,56.8,30.09,ENE,57,1.0,3.0,62,0.00,,,0.00,meteohub,2013-07-02 01:12:00,
2013-07-01 20:18:00,70.3,57.6,30.09,ENE,57,0.0,3.0,64,0.00,,,0.00,meteohub,2013-07-02 01:18:00,
2013-07-01 20:23:00,70.0,57.7,30.09,ENE,57,0.0,3.0,65,0.00,,,0.00,meteohub,2013-07-02 01:23:00,
2013-07-01 20:28:00,69.4,57.2,30.09,ENE,57,0.0,1.0,65,0.00,,,0.00,meteohub,2013-07-02 01:28:00,
2013-07-01 20:33:00,69.1,57.7,30.09,ENE,57,0.0,1.0,67,0.00,,,0.00,meteohub,2013-07-02 01:33:00,
2013-07-01 20:38:00,68.9,57.6,30.09,ENE,57,0.0,1.0,67,0.00,,,0.00,meteohub,2013-07-02 01:38:00,
2013-07-01 20:44:00,68.5,55.9,30.09,ENE,57,2.0,0.0,64,0.00,,,0.00,meteohub,2013-07-02 01:44:00,
2013-07-01 20:49:00,68.4,56.5,30.09,ENE,57,1.0,3.0,66,0.00,,,0.00,meteohub,2013-07-02 01:49:00,
2013-07-01 20:54:00,68.0,56.3,30.09,ENE,57,1.0,3.0,66,0.00,,,0.00,meteohub,2013-07-02 01:54:00,
2013-07-01 20:59:00,67.5,56.1,30.09,ENE,57,2.0,3.0,67,0.00,,,0.00,meteohub,2013-07-02 01:59:00,
2013-07-01 21:04:00,66.9,55.9,30.09,ENE,57,3.0,3.0,68,0.00,,,0.00,meteohub,2013-07-02 02:04:00,
2013-07-01 21:09:00,66.7,55.8,30.09,NE,35,6.0,6.0,68,0.00,,,0.00,meteohub,2013-07-02 02:09:00,
2013-07-01 21:15:00,66.7,55.4,30.10,NE,34,2.0,3.0,67,0.00,,,0.00,meteohub,2013-07-02 02:15:00,
2013-07-01 21:20:00,66.4,55.0,30.10,NE,34,3.0,6.0,67,0.00,,,0.00,meteohub,2013-07-02 02:20:00,
2013-07-01 21:25:00,65.8,55.8,30.10,NE,34,1.0,5.0,70,0.00,,,0.00,meteohub,2013-07-02 02:25:00,
2013-07-01 21:30:00,64.9,55.8,30.10,NE,34,2.0,4.0,72,0.00,,,0.00,meteohub,2013-07-02 02:30:00,
2013-07-01 21:35:00,64.2,55.4,30.10,NE,34,1.0,3.0,73,0.00,,,0.00,meteohub,2013-07-02 02:35:00,
2013-07-01 21:40:00,64.0,55.6,30.10,NE,34,2.0,3.0,74,0.00,,,0.00,meteohub,2013-07-02 02:40:00,
2013-07-01 21:46:00,63.7,55.6,30.10,NE,34,1.0,3.0,75,0.00,,,0.00,meteohub,2013-07-02 02:46:00,
2013-07-01 21:51:00,63.3,55.6,30.10,NE,34,1.0,3.0,76,0.00,,,0.00,meteohub,2013-07-02 02:51:00,
2013-07-01 21:56:00,63.3,55.2,30.10,NE,34,2.0,3.0,75,0.00,,,0.00,meteohub,2013-07-02 02:56:00,
2013-07-01 22:01:00,63.7,55.6,30.10,NE,34,1.0,4.0,75,0.00,,,0.00,meteohub,2013-07-02 03:01:00,
2013-07-01 22:06:00,63.0,55.6,30.10,NE,34,1.0,4.0,77,0.00,,,0.00,meteohub,2013-07-02 03:06:00,
2013-07-01 22:12:00,62.4,55.4,30.11,NE,34,0.0,4.0,78,0.00,,,0.00,meteohub,2013-07-02 03:12:00,
2013-07-01 22:17:00,62.2,55.2,30.11,NE,34,0.0,3.0,78,0.00,,,0.00,meteohub,2013-07-02 03:17:00,
2013-07-01 22:22:00,62.1,55.0,30.10,NE,34,0.0,2.0,78,0.00,,,0.00,meteohub,2013-07-02 03:22:00,
2013-07-01 22:27:00,61.9,54.9,30.11,NE,34,2.0,2.0,78,0.00,,,0.00,meteohub,2013-07-02 03:27:00,
2013-07-01 22:32:00,61.9,55.2,30.11,NE,34,2.0,3.0,79,0.00,,,0.00,meteohub,2013-07-02 03:32:00,
2013-07-01 22:37:00,61.9,54.9,30.11,NE,34,3.0,3.0,78,0.00,,,0.00,meteohub,2013-07-02 03:37:00,
2013-07-01 22:42:00,61.9,54.9,30.11,NE,34,2.0,3.0,78,0.00,,,0.00,meteohub,2013-07-02 03:42:00,
2013-07-01 22:47:00,62.1,54.7,30.11,NE,34,2.0,3.0,77,0.00,,,0.00,meteohub,2013-07-02 03:47:00,
2013-07-01 22:52:00,62.2,54.5,30.11,NE,34,2.0,3.0,76,0.00,,,0.00,meteohub,2013-07-02 03:52:00,
2013-07-01 22:57:00,62.1,54.3,30.11,NE,34,0.0,3.0,76,0.00,,,0.00,meteohub,2013-07-02 03:57:00,
2013-07-01 23:01:00,61.9,54.3,30.11,NE,34,1.0,3.0,76,0.00,,,0.00,meteohub,2013-07-02 04:01:00,
2013-07-01 23:02:00,61.9,54.3,30.11,NE,34,1.0,3.0,76,0.00,,,0.00,meteohub,2013-07-02 04:02:00,
2013-07-01 23:03:00,61.9,54.3,30.11,NE,34,2.0,3.0,76,0.00,,,0.00,meteohub,2013-07-02 04:03:00,
2013-07-01 23:04:00,61.9,53.8,30.11,NE,34,1.0,3.0,75,0.00,,,0.00,meteohub,2013-07-02 04:04:00,
2013-07-01 23:09:00,61.7,53.8,30.11,NE,34,3.0,3.0,75,0.00,,,0.00,meteohub,2013-07-02 04:09:00,
2013-07-01 23:14:00,61.5,54.0,30.11,NE,34,3.0,3.0,76,0.00,,,0.00,meteohub,2013-07-02 04:14:00,
2013-07-01 23:20:00,61.2,54.0,30.11,NE,34,2.0,4.0,77,0.00,,,0.00,meteohub,2013-07-02 04:20:00,
2013-07-01 23:25:00,61.0,54.5,30.11,NE,34,1.0,4.0,79,0.00,,,0.00,meteohub,2013-07-02 04:25:00,
2013-07-01 23:30:00,60.6,54.5,30.11,NE,34,1.0,3.0,80,0.00,,,0.00,meteohub,2013-07-02 04:30:00,
2013-07-01 23:35:00,60.4,54.3,30.11,NE,34,2.0,3.0,80,0.00,,,0.00,meteohub,2013-07-02 04:35:00,
2013-07-01 23:40:00,60.4,54.5,30.11,NE,34,3.0,3.0,81,0.00,,,0.00,meteohub,2013-07-02 04:40:00,
2013-07-01 23:46:00,60.4,54.5,30.11,NE,34,3.0,3.0,81,0.00,,,0.00,meteohub,2013-07-02 04:46:00,
2013-07-01 23:51:00,60.1,54.3,30.11,NE,34,2.0,4.0,81,0.00,,,0.00,meteohub,2013-07-02 04:51:00,
2013-07-01 23:56:00,59.7,54.1,30.11,NE,34,4.0,4.0,82,0.00,,,0.00,meteohub,2013-07-02 04:56:00,